{"data":{"norad_id":85210,"intl_designator":"","name":"UNKNOWN","alt_names":[],"object_type":"UNKNOWN","status":"UNKNOWN","operator":null,"country":null,"launch_date":null,"launch_site_code":null,"launch_vehicle":null,"mission":null,"orbit_class":"UNKNOWN","rcs_meters":null,"size_class":null,"mass_kg":null,"dimensions":null,"purposes":[],"wikipedia_slug":null,"has_3d_model":false,"image_url":null,"decayed_at":null,"tle_current":{"epoch":"2026-09-17T16:39:20.436192Z","epoch_age_seconds":256961,"freshness":"STALE","line1":"1 85210U          26260.69398653  .00000444  00000+0  46315-3 0  9994","line2":"2 85210  99.8828  54.7034 0212535 320.0047  51.4152 13.71934081640408","mean_motion":13.71934081,"eccentricity":0.0212535,"inclination_deg":99.8828,"raan_deg":54.7034,"arg_perigee_deg":320.0047,"mean_anomaly_deg":51.4152,"bstar":0.00046315,"rev_number":64040,"period_min":104.96131118416,"perigee_km":835.98086340191,"apogee_km":1149.2902933918,"semimajor_km":7370.7725783969,"source":"CELESTRAK","updated_at":"2026-09-20T09:00:32.447229Z"}}}